Wind_Speed
17 17 17 18 17 17 17 17 17 17 17 17 18 18 18 18 18 18 17 17 16 15 14 13 13 13 12 12 12 12 13 13 15 18 19 19 18 18 17 18 18 18 18 16 16 16 16 16 15 14 14 13 13 13 12 12 12 11 12 12 8 6 5 4 5 6 5 5 7 7 7 8 8 7 6 6 7 8 7 6 8 9 9 9 8 6 5 9
19 19 19 19 19 18 18 18 18 18 18 18 18 18 18 18 18 18 18 18 17 16 15 15 15 15 14 13 13 13 14 14 16 17 17 17 19 19 17 18 19 19 19 18 18 18 19 19 18 17 16 16 15 13 13 13 14 13 13 12 10 8 5 5 6 7 4 5 8 10 10 9 7 6 5 6 7 9 7 7 9 9 8 8 9 7 5 8
21 21 21 21 21 20 20 20 19 19 19 19 20 20 19 19 19 19 19 19 19 17 17 17 16 16 16 16 14 14 15 16 17 16 15 17 19 19 19 18 20 21 22 23 23 22 23 22 20 19 18 18 16 14 14 14 15 14 14 13 10 8 7 7 7 6 5 6 8 9 11 11 9 6 6 7 8 8 7 7 9 9 7 6 8 8 7 7
24 23 23 23 23 23 23 22 21 21 20 20 20 21 20 20 20 20 20 20 20 19 18 18 18 18 18 18 17 16 17 18 17 16 15 17 18 19 20 20 22 24 25 26 25 25 25 23 20 19 19 17 16 15 15 15 15 15 15 13 11 9 8 9 8 8 8 7 6 7 9 10 9 7 6 7 7 6 5 7 9 8 6 5 6 8 8 8
26 26 26 26 26 26 25 25 24 24 23 22 22 22 22 21 21 20 21 21 21 20 19 18 19 19 20 19 19 18 18 19 17 16 16 17 17 18 20 22 24 26 24 25 25 24 23 21 20 19 18 17 15 15 16 16 16 16 15 13 12 11 10 10 9 9 10 8 7 7 7 8 7 7 5 4 5 5 6 9 9 7 5 5 5 7 9 9
28 28 28 28 28 28 28 27 27 27 26 26 25 24 24 23 22 21 21 21 22 22 20 19 19 20 20 21 21 21 21 20 17 17 18 18 17 18 19 21 24 25 23 23 24 24 22 20 20 18 19 17 14 15 18 17 17 17 15 14 13 12 12 12 10 9 10 11 8 7 8 8 6 6 4 2 5 6 9 10 8 7 4 4 5 6 8 9
29 29 29 29 30 30 29 29 29 29 29 28 28 27 26 26 24 23 22 22 22 23 22 20 20 20 20 21 22 23 23 22 19 18 19 19 18 18 19 20 22 23 22 23 23 22 22 20 18 18 20 17 15 18 20 18 18 19 16 15 15 14 13 13 12 9 10 12 10 8 8 8 7 5 4 4 5 6 9 10 8 6 4 3 4 6 6 8
29 29 30 30 30 31 31 31 31 31 30 30 30 30 29 29 28 27 25 24 23 24 23 22 21 21 21 21 23 24 24 24 22 21 21 21 20 19 19 19 20 22 23 25 25 24 23 20 19 20 19 16 17 21 22 19 19 19 17 18 18 17 16 15 14 11 10 12 11 9 9 9 8 6 6 6 5 6 9 10 8 7 5 4 4 4 5 7
28 28 29 30 30 31 31 31 32 32 32 32 31 31 31 31 30 30 29 27 26 25 25 23 23 22 22 22 23 24 25 25 24 23 23 22 21 21 21 20 20 22 23 25 26 26 23 20 20 21 19 19 21 23 23 19 17 19 21 21 21 21 20 18 17 15 14 13 11 10 10 11 10 8 7 6 6 7 10 10 9 9 8 6 6 4 3 5
27 27 28 28 29 30 30 31 32 32 33 33 33 33 33 32 32 32 32 31 30 29 27 25 24 23 23 23 23 25 25 24 25 25 25 24 23 23 23 22 21 22 23 24 24 23 22 22 24 25 25 26 25 25 22 17 18 24 26 25 25 25 23 22 20 20 18 14 11 10 10 11 10 9 6 4 6 8 9 10 9 9 8 7 7 5 4 1
26 27 27 28 28 29 29 30 31 31 32 33 33 34 34 33 33 34 33 33 32 32 31 29 27 25 25 24 25 28 26 24 25 26 26 26 26 25 24 24 24 24 24 23 22 22 25 27 29 29 29 27 26 26 21 18 23 27 27 27 28 27 26 24 23 23 20 15 11 10 11 11 10 9 6 3 5 5 8 10 9 8 9 7 7 6 4 3
27 28 28 28 29 29 29 30 30 31 31 32 33 34 34 34 34 35 35 35 34 34 33 32 30 28 26 24 28 30 27 25 24 24 25 28 28 27 26 25 26 26 25 24 24 24 26 29 31 30 28 27 27 26 22 23 27 29 28 28 27 27 26 24 24 25 22 17 14 11 12 11 12 12 8 5 5 5 7 10 9 9 10 9 8 7 5 3
29 30 30 30 31 31 31 31 32 32 32 32 33 33 34 34 34 35 36 36 36 35 35 34 33 32 29 27 31 32 29 27 24 23 26 29 31 30 29 28 27 27 27 26 27 28 28 29 31 29 29 30 29 27 25 27 29 30 29 27 26 27 24 23 24 25 23 19 17 15 13 12 13 14 11 8 7 8 8 9 9 10 10 9 9 7 6 4
32 32 32 32 33 33 33 33 34 34 33 34 34 34 34 34 34 35 36 36 37 37 37 36 35 34 31 30 34 34 30 29 26 27 29 31 33 32 31 30 29 28 28 29 29 30 30 30 30 31 33 31 29 29 28 29 30 30 29 26 27 26 22 24 26 25 24 21 19 18 16 15 13 12 12 10 9 10 9 8 10 10 10 9 9 7 6 4
34 34 35 35 34 35 35 35 35 36 35 35 36 35 35 34 34 34 35 36 37 38 37 37 37 36 33 33 37 37 33 32 31 31 31 31 32 32 32 32 32 31 30 31 31 31 31 31 30 30 31 30 31 33 31 29 30 30 29 25 24 23 22 25 25 24 24 23 21 19 18 17 14 12 12 10 9 11 10 8 9 10 10 10 10 8 6 5
37 38 38 38 38 37 38 37 37 37 37 38 38 37 37 36 35 35 36 37 38 38 37 37 37 37 35 34 38 40 38 35 33 32 31 30 31 32 34 34 33 33 32 32 33 33 34 33 30 29 30 33 35 34 31 32 31 30 28 23 21 21 23 26 24 22 24 24 23 19 18 18 16 14 13 11 11 12 11 8 9 10 11 11 11 8 6 5
40 41 41 42 41 41 41 41 40 40 40 40 40 39 39 38 37 36 37 38 38 38 37 36 36 37 35 35 38 42 42 39 36 34 32 32 32 33 34 33 33 35 35 35 35 35 35 32 30 30 32 34 35 34 35 35 31 27 24 22 21 21 23 25 22 22 24 24 23 19 19 20 19 18 15 14 14 13 12 10 9 10 11 11 10 8 6 5
43 43 43 44 44 44 43 43 43 43 43 43 42 42 41 41 39 39 41 41 40 39 38 37 36 36 35 36 38 41 43 42 39 36 34 34 35 35 34 34 35 37 38 39 37 36 36 33 32 32 33 34 34 35 34 28 24 23 22 22 22 22 22 22 21 23 23 21 22 21 21 21 20 19 17 15 15 14 13 12 12 11 10 10 9 7 6 4
44 45 45 46 46 45 45 45 45 45 44 45 45 44 43 43 41 41 44 44 42 42 40 38 36 36 35 36 39 41 42 43 42 40 37 37 38 38 37 37 38 38 39 39 38 37 36 35 35 35 33 30 28 28 26 22 23 25 25 23 23 22 21 20 21 22 21 20 20 21 22 21 20 18 16 14 14 14 14 14 13 11 9 9 8 6 5 4
45 45 45 46 46 46 46 46 46 46 45 45 46 46 45 45 43 43 47 47 45 44 43 41 38 36 36 37 40 41 41 43 44 42 40 40 41 41 41 41 40 39 38 37 37 37 38 39 38 33 26 23 23 24 23 24 27 28 28 26 24 23 22 20 20 21 22 20 19 20 20 20 18 15 13 15 16 15 15 13 12 11 9 8 6 4 4 3
46 46 45 45 46 46 46 46 46 46 46 45 45 46 45 46 44 44 46 48 48 46 45 44 42 39 38 37 39 41 40 41 43 43 42 43 44 44 44 44 43 41 36 34 36 39 41 42 37 28 23 24 25 26 25 26 29 30 31 28 25 24 22 22 22 22 24 21 20 22 22 20 18 15 14 16 16 15 14 11 9 9 7 7 5 2 2 2
47 47 46 46 47 47 46 46 46 46 46 45 45 46 46 46 45 44 44 46 49 49 47 47 45 43 41 39 40 42 40 39 41 44 44 45 47 47 46 46 44 41 37 37 39 40 44 41 32 25 26 29 29 29 28 27 28 31 32 31 28 23 21 24 24 24 25 22 21 22 24 24 21 18 18 18 16 15 16 11 8 9 7 7 5 2 0 1
47 47 47 46 47 48 47 47 47 47 47 46 46 46 46 45 46 46 45 46 48 49 49 49 48 47 44 42 41 43 42 40 41 44 46 46 47 47 49 48 46 43 41 42 41 40 41 34 26 28 32 32 31 31 30 28 29 32 34 34 29 23 23 25 25 27 28 26 23 24 25 26 24 22 21 20 19 18 18 13 12 13 10 8 6 4 2 1
47 47 47 46 46 47 47 47 47 47 47 47 46 46 46 45 46 47 46 47 48 49 49 49 49 48 47 45 44 44 45 43 43 46 47 47 47 48 49 49 48 47 45 44 42 41 38 28 27 35 35 33 33 33 32 32 31 32 34 33 28 24 23 22 26 31 31 29 28 28 29 29 26 26 23 22 24 23 22 19 18 17 14 12 10 7 5 4
46 45 46 45 43 44 45 46 45 45 46 47 47 46 46 46 46 46 46 46 47 48 48 49 49 49 48 47 47 47 47 46 46 48 49 48 48 48 49 50 51 51 48 47 45 43 38 30 32 38 36 35 36 35 35 33 31 31 33 30 25 24 24 23 28 33 32 32 30 30 32 31 29 28 23 22 26 25 23 22 21 18 16 16 14 10 8 6
44 42 42 42 40 39 40 40 39 39 41 42 43 44 45 45 45 46 45 45 46 47 47 47 48 49 49 48 49 50 50 50 49 49 50 50 50 49 49 51 52 52 51 50 50 47 41 35 37 40 39 39 39 38 36 34 33 32 28 24 23 27 29 27 29 34 35 32 30 32 35 33 32 30 24 24 27 25 23 22 20 19 20 19 16 13 11 9
40 38 37 38 36 34 34 32 32 32 33 35 37 39 41 41 41 43 43 42 43 44 44 45 45 46 48 48 50 51 53 53 52 51 52 52 52 51 51 52 53 54 54 54 55 51 44 40 41 42 41 42 42 41 37 35 36 28 20 22 26 29 32 29 30 35 35 31 33 37 38 36 36 33 26 25 27 26 24 23 20 20 20 19 17 15 13 11
35 34 33 33 33 32 30 29 28 29 29 30 32 34 35 36 36 38 39 40 41 40 40 42 42 42 46 47 48 52 54 54 52 54 54 52 52 54 54 54 54 55 56 58 58 51 44 42 43 42 41 43 42 38 34 35 35 25 20 25 28 30 32 31 33 36 34 35 39 40 39 40 40 36 29 28 28 26 24 22 20 19 17 16 16 17 15 13
34 34 33 33 33 33 33 31 28 27 26 27 28 29 30 30 30 32 33 36 38 37 36 38 39 40 43 45 47 51 53 53 51 53 54 53 54 56 56 55 53 54 56 58 58 52 46 45 45 44 43 42 40 36 34 37 35 26 25 28 29 32 35 35 38 39 39 43 45 41 41 43 42 38 34 32 27 21 21 21 19 17 14 13 15 17 16 14
36 36 35 35 35 35 35 33 30 26 23 23 24 25 25 25 26 27 29 31 33 33 32 33 36 38 41 44 46 49 51 52 51 50 53 55 56 56 57 56 55 55 55 57 59 56 52 50 49 48 46 42 40 39 38 37 33 29 31 33 32 35 38 39 41 42 46 52 48 41 41 44 44 40 38 32 20 13 15 19 18 16 14 11 14 17 17 15
39 39 38 38 38 37 36 35 33 30 26 25 25 26 26 26 26 27 28 28 30 30 28 29 32 34 38 43 45 47 49 50 49 49 51 54 57 58 59 58 57 58 57 59 61 59 58 56 53 51 48 45 44 43 41 39 35 34 37 37 36 37 40 43 45 47 53 56 49 40 40 45 46 39 35 32 22 14 14 18 17 15 13 10 11 15 16 15
41 41 41 40 40 38 37 36 35 34 32 31 30 30 30 31 31 31 31 31 33 32 27 27 30 31 35 40 42 44 48 47 46 47 50 54 58 61 63 64 63 63 62 61 62 61 62 59 55 54 51 49 48 46 44 43 41 40 41 41 41 41 42 46 50 52 57 56 48 41 40 47 47 37 33 33 26 20 15 16 18 15 11 9 8 10 12 14
41 41 41 40 39 38 37 36 35 35 35 34 34 34 34 35 35 35 34 35 38 36 30 28 29 30 33 36 37 40 46 46 43 46 50 55 60 63 66 67 66 67 65 63 63 63 63 61 58 57 55 52 51 49 47 48 47 45 45 45 45 45 46 49 51 54 57 55 47 41 42 49 45 31 31 34 28 22 18 16 19 18 15 13 10 9 10 13
41 40 38 36 35 34 33 32 31 31 32 32 32 33 34 36 36 35 35 36 38 37 35 33 30 31 32 33 34 36 42 44 41 44 51 55 60 63 66 67 66 68 66 64 65 65 65 64 61 59 57 54 53 51 48 47 47 45 44 44 45 46 46 45 47 50 54 51 44 42 46 50 42 26 25 32 30 26 21 17 18 20 20 17 15 13 11 14
40 39 36 33 31 30 27 26 26 26 27 27 28 29 31 33 34 34 35 36 36 36 35 34 32 32 32 33 34 34 38 43 41 44 51 56 61 64 66 67 67 68 67 65 65 67 68 65 59 57 57 55 52 50 47 47 48 46 44 45 47 45 42 41 41 43 47 48 43 44 48 48 39 29 26 31 32 29 24 20 19 19 22 23 22 18 16 16
36 36 32 29 27 26 25 26 27 27 28 28 28 28 29 31 33 34 34 34 35 34 33 34 33 33 34 34 34 33 35 40 42 45 51 57 60 63 66 67 68 68 68 67 66 68 69 66 61 59 59 56 52 50 49 49 49 48 48 49 47 41 38 39 39 39 43 46 43 43 48 47 39 34 31 32 32 30 26 22 19 17 20 24 25 24 22 19
32 31 27 25 24 25 28 30 30 30 30 30 30 30 30 31 31 33 35 34 34 34 33 34 34 35 36 35 35 34 34 37 41 45 52 57 58 61 64 67 68 69 70 69 67 69 70 68 66 64 62 59 55 51 50 50 49 48 49 48 43 38 38 39 38 39 43 45 42 41 46 48 41 35 32 32 33 31 28 23 18 18 20 23 23 23 24 21
28 27 26 26 26 27 29 31 32 32 32 31 31 31 30 30 31 31 33 34 34 34 35 35 35 36 37 37 37 36 35 36 39 45 53 57 57 59 62 64 67 69 70 70 69 70 71 69 67 66 63 62 59 54 51 51 49 48 47 45 43 42 43 43 42 42 44 45 42 40 44 46 40 33 30 31 32 30 28 24 21 19 20 20 19 18 20 21
28 26 25 26 26 28 29 31 32 33 33 32 31 31 29 28 30 30 30 32 33 33 34 36 36 36 38 39 39 39 38 37 38 43 52 58 58 58 60 62 65 67 70 70 70 71 72 69 68 67 65 63 62 58 55 54 51 49 49 47 45 45 44 43 43 42 42 43 41 39 42 41 34 28 26 27 28 29 30 28 24 22 19 17 18 17 17 20
33 31 29 28 28 29 30 30 32 34 34 32 31 31 29 28 30 31 30 30 30 30 32 35 37 38 39 40 40 41 40 38 38 41 50 57 59 58 58 60 62 65 68 70 71 72 72 71 68 67 67 65 63 62 58 54 51 50 53 53 50 49 46 42 43 42 41 42 40 38 39 34 28 26 25 24 24 28 29 26 24 25 22 18 18 18 18 19
34 34 32 32 32 32 31 31 33 35 34 32 31 30 29 28 30 32 31 28 27 27 30 33 36 37 39 40 40 41 42 41 39 40 47 55 60 59 57 59 61 63 67 69 70 71 72 73 69 67 68 67 63 62 59 54 51 50 52 53 51 50 48 44 45 45 41 41 40 39 37 30 24 25 25 22 21 24 27 26 26 28 27 24 21 19 19 20
34 35 33 32 34 33 33 33 33 34 34 32 30 29 29 29 31 32 31 28 26 25 28 31 34 35 37 38 39 39 41 41 40 40 45 53 61 61 57 57 60 62 65 67 69 71 72 74 71 67 69 68 63 61 60 57 55 53 52 53 51 50 50 47 47 46 42 42 40 38 36 27 21 22 23 23 22 23 28 31 32 32 30 27 23 21 22 22
35 36 34 32 31 32 31 32 33 33 33 32 30 29 28 29 31 32 29 27 26 25 26 28 30 31 33 34 36 37 38 40 40 40 43 49 59 64 59 56 59 61 64 65 68 70 72 73 71 67 67 66 60 59 60 58 57 55 53 53 53 52 51 48 47 43 41 43 39 37 35 24 19 21 22 21 22 24 27 30 32 32 30 27 25 23 24 25
33 35 34 31 28 29 29 30 32 32 32 32 31 29 28 28 29 29 27 26 26 25 25 25 25 27 28 30 32 33 35 38 39 40 42 45 53 61 62 57 57 61 63 65 67 70 71 72 71 67 64 61 57 57 59 59 59 58 55 54 53 52 50 48 46 42 42 42 38 38 33 23 19 23 21 19 22 25 27 28 29 29 28 27 26 25 26 28
32 33 33 30 28 28 28 30 32 32 32 32 30 28 27 28 28 25 22 24 24 22 21 20 22 24 26 28 29 31 32 35 37 39 41 43 47 56 62 59 55 59 63 65 68 69 70 72 72 68 64 60 58 59 61 61 62 60 57 55 53 52 51 49 48 46 46 44 40 40 33 23 20 27 24 21 24 26 27 26 25 26 26 26 26 24 26 31
32 32 31 30 29 29 29 31 33 32 31 30 27 26 26 27 27 23 19 19 20 19 18 19 20 22 24 26 28 29 29 32 36 38 40 42 43 50 60 61 55 57 63 65 67 69 69 71 72 70 67 64 62 63 64 63 63 61 60 58 55 53 53 51 50 50 49 45 42 41 35 24 22 28 26 23 24 26 26 24 22 24 26 25 23 23 26 32
32 32 31 29 29 31 32 32 33 32 30 28 26 24 24 24 24 22 18 17 17 17 18 18 20 20 22 24 26 28 28 30 34 37 40 43 43 46 56 62 57 54 61 65 66 69 69 71 72 70 68 67 64 64 64 63 63 62 61 61 58 55 54 53 53 52 48 46 45 42 36 28 26 26 24 22 22 24 25 23 22 24 25 23 21 22 26 31
32 32 33 30 29 30 32 33 32 31 29 27 25 23 22 22 21 19 17 16 16 16 16 18 19 20 21 23 24 27 29 29 32 34 37 41 44 44 51 62 61 53 56 63 65 68 69 69 72 71 68 67 65 64 64 63 62 62 61 61 59 57 56 55 55 51 47 46 45 39 34 30 27 24 23 22 23 25 25 22 21 22 21 20 22 23 24 28
31 31 32 32 30 30 31 32 32 31 28 27 26 24 21 20 19 17 16 16 17 17 17 18 19 20 21 23 25 27 29 29 29 31 33 36 40 41 46 60 65 55 54 60 64 68 69 68 71 71 68 66 64 64 64 62 61 61 61 61 61 60 59 57 54 50 47 45 41 35 32 29 27 26 26 26 27 28 26 23 22 23 21 20 23 24 24 26
31 31 31 31 31 30 31 32 31 30 28 26 25 24 22 19 18 17 16 16 17 18 18 18 20 21 23 25 26 27 28 28 26 26 29 31 33 38 42 54 66 59 53 56 62 68 69 68 70 70 67 64 64 64 64 61 59 59 60 62 63 62 60 57 52 48 46 43 38 34 32 30 29 30 31 31 31 29 28 27 26 26 23 21 21 23 24 26
32 31 31 31 31 31 30 31 30 29 27 25 24 24 22 19 17 17 17 15 15 18 19 19 20 21 22 23 24 24 24 24 23 23 26 27 28 32 37 48 65 64 53 51 57 66 69 68 69 69 65 63 64 65 64 60 57 57 60 62 62 61 59 54 50 48 45 41 37 36 35 32 32 34 35 33 33 31 29 29 28 27 26 23 20 18 20 24
33 31 31 31 31 31 30 29 29 28 26 24 23 23 22 20 17 16 18 18 17 17 17 17 17 17 19 19 20 21 21 21 22 22 24 26 25 28 32 42 62 67 55 47 52 63 68 68 70 69 63 62 65 65 63 58 56 56 59 62 62 60 58 53 49 48 46 41 38 39 38 35 35 38 37 34 33 32 30 30 28 28 28 24 20 16 16 19
Wind_Direction
288 288 286 285 284 282 280 278 276 274 273 272 271 271 272 272 272 272 271 271 269 268 267 264 262 260 253 243 239 241 241 237 235 230 225 223 221 225 221 216 217 215 220 219 215 219 220 222 223 222 221 220 219 216 216 221 226 228 232 239 234 217 206 206 230 232 202 158 137 127 112 102 102 102 111 133 136 139 157 146 120 113 114 114 116 125 151 148
289 288 287 287 285 284 282 280 278 276 274 272 271 270 270 270 270 270 270 269 267 265 263 262 260 259 257 250 239 237 240 239 239 235 230 228 224 225 221 218 220 216 219 220 216 215 216 219 218 217 218 219 220 214 213 219 224 227 231 236 232 224 214 203 216 230 214 156 145 134 120 111 101 104 116 127 135 144 147 125 109 104 107 118 124 132 156 156
286 286 286 286 285 285 284 282 280 278 276 274 272 270 269 269 269 269 269 268 267 264 261 259 257 256 256 254 246 237 237 239 240 238 233 231 228 225 221 218 219 217 216 218 217 214 216 219 218 217 218 221 222 218 215 219 225 229 232 235 233 228 221 210 207 213 197 162 154 139 127 121 114 122 133 129 137 147 140 114 99 96 105 123 130 138 156 157
282 282 282 282 282 282 282 282 281 280 278 276 274 272 270 268 268 267 268 268 267 264 261 258 255 254 253 254 251 243 238 238 239 238 235 234 231 227 223 218 220 221 217 219 220 218 220 224 224 224 226 228 227 226 223 221 226 230 232 233 233 232 233 229 206 188 191 182 158 138 127 121 118 132 145 134 139 147 127 103 91 91 104 120 132 141 153 156
280 279 279 278 278 278 278 278 278 278 278 276 275 274 272 270 267 266 266 266 266 265 261 258 256 253 251 251 251 249 244 241 238 236 236 236 234 231 226 221 223 226 222 223 226 225 224 226 228 230 233 236 234 232 227 223 227 230 231 232 231 231 236 236 210 186 199 198 167 151 130 116 119 134 151 134 127 126 100 93 89 87 101 116 128 141 154 158
281 280 279 277 276 275 274 274 273 274 273 273 273 273 273 271 269 266 265 264 265 264 262 259 256 253 251 250 249 249 247 245 241 236 236 236 236 234 230 226 227 229 227 227 229 230 228 225 227 231 237 239 236 233 228 223 224 226 227 227 229 230 233 235 221 205 207 198 177 169 143 126 132 140 160 141 114 114 101 99 94 82 88 108 120 137 157 165
283 282 281 279 278 276 275 273 272 270 270 269 269 269 270 270 269 267 264 263 262 262 262 259 256 255 252 250 248 248 248 247 243 238 236 235 235 236 233 229 231 233 230 230 232 233 233 228 226 230 235 236 231 230 230 223 220 223 223 221 225 229 232 235 229 219 208 197 180 172 156 146 154 156 177 166 134 122 107 107 101 84 75 91 110 129 151 171
284 283 282 280 279 278 276 275 273 271 269 268 266 266 265 266 267 267 265 263 261 260 259 258 256 254 253 251 250 248 247 247 244 240 237 235 234 237 236 230 231 234 230 229 229 228 229 225 222 225 230 232 228 227 227 221 218 222 221 218 220 222 226 228 226 222 211 202 182 169 170 162 162 164 171 172 163 137 109 102 95 83 71 73 88 113 140 169
286 284 283 281 280 279 277 276 275 273 271 269 267 265 264 263 262 263 263 262 261 260 258 256 254 253 252 252 251 250 247 246 245 243 240 235 232 236 238 231 228 231 233 231 229 228 227 224 222 222 223 225 225 226 224 216 213 219 219 216 217 219 221 220 219 219 213 210 194 178 176 164 160 162 165 172 161 135 109 98 93 86 72 62 63 71 107 158
288 286 284 283 281 280 278 277 275 274 273 271 269 267 265 263 261 260 259 259 259 259 258 256 253 251 251 251 251 251 248 245 244 243 243 240 233 233 236 234 228 229 233 235 234 231 227 223 222 218 216 217 219 223 220 208 207 215 216 215 216 218 220 218 216 217 213 210 203 184 174 164 160 164 169 173 148 135 118 106 103 97 82 64 57 49 46 94
291 290 288 286 284 282 281 279 277 275 273 272 270 268 267 265 263 261 259 257 256 256 256 256 254 251 249 249 250 250 247 244 243 242 244 244 238 232 233 235 232 230 231 233 233 228 224 221 222 221 218 217 218 222 215 202 210 217 218 217 218 219 220 220 219 222 217 207 202 189 178 168 163 167 174 182 160 152 135 116 107 104 95 76 62 50 38 25
295 294 292 290 288 286 284 282 279 277 274 272 270 268 267 265 264 262 260 258 256 254 253 253 253 251 249 247 248 249 247 243 241 242 243 244 242 236 233 232 232 231 229 230 229 226 224 223 225 225 223 222 221 222 213 205 212 217 220 220 220 222 223 225 226 227 223 208 198 198 191 170 162 170 177 195 193 185 154 124 107 105 97 79 66 55 45 24
296 294 293 291 289 288 286 285 282 280 277 274 271 269 267 265 264 263 261 260 258 255 252 251 250 249 248 246 247 248 247 245 241 240 240 240 241 238 233 231 230 230 229 230 229 227 225 224 226 224 224 224 221 221 217 213 215 217 220 219 220 224 223 226 232 236 236 221 202 201 198 175 169 177 183 204 208 199 176 135 116 112 102 83 65 48 39 30
295 294 292 291 289 288 286 284 283 281 279 277 274 271 268 266 264 263 262 260 259 256 254 251 248 247 245 245 247 247 245 245 240 236 236 236 239 239 235 232 230 229 229 231 230 229 228 226 225 222 224 224 222 223 221 219 220 220 222 217 218 222 219 224 233 240 244 236 217 206 198 186 183 185 191 212 209 197 192 154 130 120 108 88 61 37 30 34
295 294 292 291 289 288 286 284 283 281 279 277 275 273 270 268 266 264 262 260 258 256 255 253 250 247 243 242 247 248 243 241 239 237 236 237 239 240 239 235 232 229 227 230 231 230 229 227 226 226 227 226 224 224 221 221 223 224 226 221 219 218 215 222 230 237 241 240 232 217 203 193 187 184 189 207 205 192 196 173 145 130 113 90 59 32 19 31
295 294 292 290 289 287 286 284 282 281 279 277 275 273 271 269 267 266 264 261 258 256 254 254 252 249 245 241 244 248 245 240 238 238 238 238 240 241 241 238 236 235 231 230 231 232 232 229 227 226 227 226 228 228 224 225 224 225 228 226 225 219 214 220 227 234 239 240 240 227 210 199 186 182 184 192 199 195 196 188 161 140 118 94 66 33 10 19
295 294 292 290 288 287 285 283 281 280 278 277 275 273 271 269 267 266 265 262 258 256 254 253 251 250 248 242 242 245 246 243 238 237 237 238 239 240 242 242 239 237 236 233 230 232 234 232 228 227 227 227 229 229 227 228 228 229 231 228 228 224 218 221 222 229 237 241 244 234 219 211 194 185 181 186 198 195 189 191 178 152 125 104 79 41 13 12
295 293 292 290 288 287 285 283 281 279 278 276 274 273 272 270 267 267 266 262 259 256 253 251 250 250 249 244 242 242 244 245 241 237 235 236 239 238 240 242 239 236 236 235 233 232 234 233 231 229 229 229 229 231 232 234 235 236 237 231 229 227 223 222 221 224 231 237 243 237 226 222 211 195 183 184 191 185 184 193 186 164 135 113 90 52 23 15
295 293 292 290 288 287 285 283 281 279 277 275 274 272 271 270 268 267 266 261 259 258 254 251 248 249 250 246 243 241 241 243 243 239 234 233 236 237 236 238 238 237 236 236 236 235 235 234 232 230 232 235 238 241 242 240 236 234 234 230 227 227 224 221 220 221 225 229 232 234 232 230 226 211 189 179 179 179 194 200 186 170 147 123 99 60 27 19
295 293 292 291 289 287 285 283 281 279 277 274 273 271 269 268 267 267 266 262 259 259 257 254 249 246 247 247 245 242 241 241 242 240 235 232 234 235 235 236 237 237 236 237 239 238 237 236 234 234 237 243 246 245 241 235 233 232 231 228 223 222 218 216 217 218 224 225 217 218 225 229 230 222 200 187 185 189 200 201 187 175 156 135 112 69 24 18
297 295 294 292 290 288 286 284 282 279 277 274 272 270 268 267 265 264 265 264 261 259 256 254 251 246 244 244 245 244 242 241 241 240 236 232 232 233 235 237 237 237 237 237 238 237 236 235 234 234 235 236 236 236 233 229 229 231 231 229 223 217 212 211 213 215 222 220 210 211 214 217 222 219 209 199 189 184 187 189 191 187 169 150 133 96 9 12
299 297 296 294 292 290 288 286 284 281 278 276 273 270 268 265 263 260 260 261 262 260 258 255 252 248 244 241 243 244 243 242 241 241 238 234 232 231 233 235 237 238 237 235 235 235 235 235 234 234 233 232 232 232 230 226 226 228 230 228 223 215 209 210 211 217 222 214 209 218 218 216 215 209 206 198 178 169 174 178 194 203 195 176 161 160 298 16
301 299 297 296 294 291 289 287 285 283 280 278 275 272 269 266 264 261 257 255 257 258 258 257 255 252 247 241 239 242 243 242 240 240 238 236 233 231 231 233 235 236 235 235 235 235 236 236 236 235 233 231 231 231 230 226 223 225 227 226 220 213 212 211 211 219 223 213 208 219 224 222 214 208 206 191 171 170 178 187 204 210 205 193 190 201 185 116
303 301 299 297 296 293 291 289 287 285 282 279 277 274 271 268 264 262 259 256 254 254 254 254 254 253 250 245 239 238 240 240 240 239 237 235 232 230 230 230 232 233 234 236 236 236 236 233 231 232 231 230 230 230 230 227 223 224 227 226 218 213 215 214 215 221 224 219 213 217 223 222 213 210 208 190 178 182 187 195 205 208 207 203 201 195 179 162
306 304 301 299 298 296 294 292 291 289 285 282 280 278 274 270 267 264 261 258 256 254 252 251 251 250 249 247 242 238 237 238 238 238 237 235 233 230 228 227 228 230 232 234 234 234 233 227 227 230 229 226 227 228 229 229 226 224 227 226 217 214 215 213 216 221 222 220 218 220 224 224 219 215 207 193 188 187 191 197 202 206 208 210 205 189 181 177
309 307 304 302 301 300 298 296 294 292 289 287 284 281 278 274 272 268 264 261 258 255 253 251 250 249 246 245 243 240 239 238 237 237 236 235 234 231 229 227 226 227 229 232 233 232 228 224 225 228 227 224 224 225 226 227 226 224 226 225 217 215 215 212 215 220 222 218 216 221 226 225 226 222 207 196 194 189 193 197 198 204 207 208 203 189 189 188
314 311 309 307 306 305 302 299 297 295 293 290 287 285 282 279 276 273 269 266 262 258 257 254 251 249 246 243 241 240 240 239 237 236 234 233 233 231 229 228 225 224 225 228 231 229 225 221 223 226 226 224 223 223 224 227 227 222 218 221 217 214 214 212 214 222 225 219 216 222 227 226 228 226 214 204 201 194 194 192 189 198 204 205 201 190 196 201
321 319 317 314 312 310 307 304 301 298 295 292 289 286 284 282 280 276 273 269 264 260 259 256 252 249 245 243 241 238 238 238 237 236 235 233 233 232 229 227 225 224 223 225 228 228 225 223 224 226 227 226 224 224 226 229 229 219 211 219 216 212 213 210 213 220 221 219 221 224 229 232 232 231 223 214 211 202 192 186 184 189 200 208 205 196 199 206
325 322 319 315 313 310 308 306 303 300 297 295 291 287 285 284 282 278 274 271 266 262 260 257 253 248 244 242 240 237 237 237 236 236 235 232 230 231 230 227 224 223 222 223 225 225 223 223 224 225 225 225 224 224 224 227 226 215 210 217 213 209 210 207 210 214 214 220 225 225 229 236 238 236 230 224 223 215 194 182 174 175 189 204 203 199 200 206
320 317 314 312 310 308 307 306 304 301 298 295 292 287 286 284 282 278 273 271 269 265 262 259 254 248 243 240 238 236 235 236 235 234 233 231 228 228 230 227 224 223 222 221 222 221 220 220 221 222 222 221 222 221 220 222 220 212 210 213 210 208 207 206 209 208 211 222 227 223 226 238 241 237 235 235 236 230 199 185 177 174 183 195 197 201 203 206
317 314 311 309 307 305 305 304 304 301 297 292 288 284 282 280 278 275 273 275 274 269 267 264 257 249 243 239 237 235 233 234 235 232 230 230 226 224 224 222 220 221 220 219 220 218 218 217 217 219 219 218 219 218 215 216 214 210 209 211 209 208 206 206 209 207 212 223 226 221 225 237 243 238 238 243 241 232 207 189 186 181 179 189 200 204 206 207
315 312 310 308 306 304 303 302 301 299 296 292 289 285 282 279 275 272 272 275 273 271 269 266 260 253 246 240 237 234 232 232 232 229 227 226 223 220 220 220 221 222 220 219 218 218 218 216 214 216 217 217 218 216 213 211 211 208 208 209 209 208 206 207 209 210 218 224 221 216 223 236 243 239 237 245 243 235 222 194 185 182 188 204 211 211 208 209
316 313 311 310 306 304 302 301 300 299 297 295 292 289 286 283 279 274 271 269 269 269 267 263 260 258 253 244 238 234 231 230 229 225 223 223 223 220 219 222 224 224 222 219 218 219 218 215 213 213 215 216 217 216 214 212 211 208 207 210 211 209 209 210 211 214 221 225 218 213 223 237 244 240 233 241 244 238 231 209 189 183 198 217 221 221 212 205
319 317 317 316 312 309 309 308 307 304 302 300 297 294 290 286 282 278 272 266 266 266 264 261 258 257 257 251 243 236 231 229 226 222 220 220 222 221 219 220 221 222 222 219 218 218 217 215 213 213 214 215 217 217 215 215 214 212 210 213 216 216 217 216 216 218 223 225 218 213 225 239 245 242 232 236 243 241 233 224 205 190 195 213 222 219 206 198
324 325 326 322 318 319 323 323 321 318 314 310 306 303 298 291 284 279 273 267 264 264 262 259 254 250 253 254 250 243 235 230 225 220 217 217 219 219 218 217 217 220 220 218 217 218 218 213 211 214 215 215 216 217 216 215 215 213 212 214 217 218 221 222 222 224 227 228 223 221 232 243 247 247 239 233 237 242 237 231 224 206 197 206 214 211 200 195
332 337 336 328 325 330 335 335 333 330 325 320 314 310 306 299 289 278 271 267 262 260 258 255 251 246 246 249 251 248 241 233 225 219 215 214 215 217 216 215 216 217 217 216 216 218 218 213 208 212 213 212 215 217 216 216 215 214 213 214 216 216 220 223 223 224 228 229 227 228 236 244 246 248 244 235 233 238 239 234 228 218 206 204 205 201 195 192
334 340 337 333 334 335 335 335 334 331 328 324 320 314 307 302 296 281 268 263 260 257 254 250 248 245 242 242 245 247 245 238 228 219 215 213 212 214 215 214 214 215 216 215 215 217 219 215 209 210 211 208 210 214 215 216 215 215 215 215 216 215 216 219 220 221 225 228 228 227 233 240 243 243 242 239 234 233 237 237 229 224 218 210 205 198 191 190
329 332 327 326 328 326 327 329 329 328 325 323 322 317 308 301 301 291 272 262 259 256 253 248 244 242 241 240 241 242 244 241 233 223 217 214 212 212 213 213 213 214 215 215 215 217 220 216 210 210 210 208 207 209 211 212 212 214 216 215 216 217 216 216 216 217 221 226 226 224 229 236 239 238 238 238 235 233 237 239 235 233 225 217 215 208 196 192
317 320 317 316 318 318 320 323 325 324 322 321 318 315 309 300 298 296 280 264 257 255 252 248 243 240 239 238 238 238 239 240 236 228 221 217 214 213 213 213 213 213 213 214 215 217 218 216 210 208 209 209 208 207 207 209 209 210 213 213 214 217 219 219 220 219 220 225 226 224 227 231 233 234 235 235 233 232 235 238 239 239 233 222 221 223 216 205
314 314 313 310 311 314 315 318 321 320 319 319 315 310 307 299 295 295 286 268 256 252 249 246 243 240 238 236 236 236 236 236 235 230 226 221 217 216 214 213 213 213 213 213 214 215 217 216 210 207 209 210 209 209 207 208 209 209 211 211 210 213 215 217 222 222 222 226 228 228 228 227 227 231 232 231 230 229 232 238 241 242 242 236 230 231 231 221
318 315 313 309 309 313 314 317 320 320 318 317 314 309 305 300 296 294 287 272 256 248 244 242 241 240 239 238 236 236 235 234 232 229 228 224 219 217 217 214 213 214 213 212 213 213 215 216 210 205 208 209 209 209 207 206 208 209 213 213 210 211 211 212 217 219 220 224 227 229 228 221 219 227 233 235 236 236 238 242 244 244 244 243 236 232 233 229
322 317 314 312 313 314 316 318 319 320 319 316 314 310 305 301 297 294 286 271 258 250 242 240 240 239 240 240 238 237 237 235 231 227 226 225 220 217 217 216 214 214 214 212 212 212 213 215 210 204 206 209 208 209 207 207 208 208 211 213 211 212 212 212 216 216 218 222 225 229 227 212 204 218 226 229 230 231 233 234 236 238 240 237 231 226 229 230
326 320 319 321 320 317 316 319 320 321 321 319 318 313 307 302 298 294 285 269 259 254 245 241 242 240 240 241 241 240 239 237 234 229 227 226 222 217 215 216 215 215 215 213 212 211 212 214 211 204 205 207 206 207 208 207 208 208 209 210 209 211 212 215 218 218 220 223 223 227 221 196 186 208 212 213 213 212 214 219 225 231 233 227 218 212 216 223
328 324 324 326 325 319 319 321 324 327 326 324 321 316 311 306 301 299 290 273 262 254 247 244 246 246 245 244 244 244 243 241 240 237 232 230 227 219 213 213 215 216 216 215 213 212 210 213 211 203 201 204 201 203 206 205 206 208 208 209 208 208 211 214 215 216 220 221 221 225 214 181 181 206 204 200 204 203 207 210 215 222 223 219 212 203 205 215
330 327 327 329 327 323 324 326 329 333 332 326 323 319 315 310 306 306 297 279 266 256 251 251 253 253 251 249 248 249 250 248 247 246 240 236 236 227 215 209 211 215 217 215 214 212 210 211 210 202 198 200 196 198 203 204 205 207 207 209 208 207 208 211 213 215 216 216 218 218 204 173 183 205 199 193 198 200 207 213 214 217 217 215 213 205 202 209
332 330 331 333 331 327 329 332 333 336 333 328 325 323 319 312 306 304 296 281 273 265 260 259 259 257 256 255 254 254 256 256 255 255 249 243 244 239 223 210 206 211 216 216 214 213 211 210 210 203 198 199 196 197 202 204 205 207 208 209 208 208 208 209 213 215 214 215 216 214 204 186 194 208 200 190 194 199 209 216 216 216 216 214 212 207 203 205
335 333 333 337 336 332 333 335 335 337 335 330 329 326 321 313 304 298 292 284 279 274 268 265 261 258 257 257 258 259 261 263 263 263 259 252 251 248 233 216 204 204 213 217 215 214 212 210 210 205 198 198 197 196 200 204 205 206 208 209 209 208 209 210 211 212 213 215 214 213 212 202 199 208 202 188 190 196 203 212 214 214 217 215 209 206 203 202
337 335 334 337 340 337 335 337 337 339 338 334 331 329 325 316 304 291 284 282 278 273 268 267 266 264 261 260 262 265 266 267 268 267 266 260 255 253 240 222 208 199 205 214 216 215 213 211 211 207 200 198 197 196 198 203 205 206 208 209 209 209 209 210 210 210 211 214 212 213 217 209 199 201 196 187 192 197 195 199 208 213 213 211 207 206 203 201
339 337 336 337 340 339 337 339 339 340 340 337 334 332 330 323 308 291 280 277 277 275 270 267 268 270 271 269 268 269 268 268 267 264 264 262 258 256 245 226 214 201 196 207 214 215 213 211 211 208 201 197 196 195 196 201 203 205 207 208 209 209 210 210 210 209 210 212 212 214 217 209 195 191 189 188 196 201 194 190 200 210 209 205 205 204 203 203
339 338 337 338 340 340 340 342 341 341 342 340 335 333 334 328 314 300 290 279 274 276 274 270 270 271 273 274 271 270 269 266 263 259 260 262 259 258 249 229 217 206 193 197 209 214 213 211 211 209 201 196 195 193 195 199 201 204 207 208 209 211 211 211 210 209 209 210 210 211 212 202 187 185 189 193 197 202 199 193 199 209 207 197 197 197 200 205
340 339 338 338 339 339 341 344 343 342 344 342 336 333 334 332 319 306 300 294 283 280 278 274 275 275 274 273 270 270 270 264 261 258 259 261 258 258 253 231 219 211 196 189 200 211 213 211 211 210 202 196 194 192 193 196 198 202 207 209 210 211 211 210 209 208 209 209 208 208 206 195 183 186 192 194 198 204 205 200 202 209 204 192 188 192 199 206
340 339 338 337 337 337 340 344 345 344 344 345 341 335 335 335 326 309 301 303 300 294 288 281 279 279 276 274 272 272 271 267 265 263 262 264 262 260 256 235 220 213 202 189 192 204 211 211 211 210 203 196 195 191 190 195 198 201 206 209 209 209 210 209 208 208 207 206 205 206 204 194 187 191 194 194 199 205 208 206 207 212 209 198 189 192 199 207
Height
5873 5872 5872 5871 5871 5871 5870 5870 5869 5869 5869 5869 5868 5868 5868 5867 5867 5867 5867 5868 5868 5868 5867 5868 5868 5867 5868 5868 5869 5869 5869 5869 5869 5869 5870 5872 5873 5874 5876 5877 5878 5878 5879 5880 5882 5883 5884 5884 5885 5886 5887 5888 5888 5889 5890 5890 5890 5890 5890 5890 5891 5892 5894 5896 5895 5895 5897 5898 5898 5898 5897 5898 5897 5897 5897 5897 5897 5898 5899 5899 5897 5897 5897 5897 5897 5899 5900 5900
5871 5871 5870 5869 5869 5869 5868 5868 5868 5867 5867 5867 5866 5866 5866 5866 5866 5865 5866 5866 5866 5866 5866 5866 5866 5866 5866 5866 5867 5867 5867 5867 5867 5868 5870 5871 5872 5873 5875 5875 5876 5877 5878 5879 5880 5881 5882 5882 5884 5885 5886 5886 5887 5888 5889 5889 5889 5890 5890 5890 5890 5891 5893 5895 5895 5895 5896 5897 5898 5898 5898 5898 5897 5897 5897 5898 5899 5899 5900 5899 5897 5896 5897 5897 5898 5899 5900 5900
5869 5869 5868 5867 5867 5866 5866 5866 5866 5865 5865 5865 5864 5864 5864 5864 5864 5864 5864 5864 5864 5865 5864 5864 5864 5864 5864 5864 5865 5865 5865 5865 5865 5867 5868 5869 5870 5871 5872 5874 5874 5875 5875 5875 5876 5878 5879 5879 5881 5883 5884 5885 5886 5888 5888 5889 5889 5889 5889 5889 5889 5890 5892 5894 5895 5896 5896 5896 5897 5898 5898 5898 5898 5898 5899 5899 5900 5900 5899 5898 5896 5896 5897 5898 5898 5899 5901 5901
5867 5866 5866 5865 5864 5864 5864 5863 5863 5863 5863 5863 5862 5862 5862 5862 5862 5862 5862 5862 5862 5862 5863 5863 5862 5862 5862 5862 5863 5863 5863 5863 5864 5866 5867 5867 5867 5869 5870 5871 5871 5871 5872 5873 5873 5875 5876 5878 5880 5882 5883 5884 5885 5886 5887 5888 5888 5888 5889 5888 5889 5889 5891 5893 5896 5896 5896 5895 5895 5896 5896 5897 5898 5899 5899 5900 5900 5900 5899 5897 5896 5897 5898 5899 5899 5900 5901 5901
5864 5863 5863 5862 5862 5861 5861 5861 5861 5860 5860 5860 5860 5859 5859 5860 5860 5860 5860 5860 5859 5860 5861 5861 5861 5860 5860 5860 5860 5861 5861 5862 5863 5864 5864 5865 5866 5867 5868 5869 5868 5869 5870 5871 5872 5873 5875 5878 5879 5880 5882 5883 5885 5886 5886 5886 5887 5887 5888 5888 5888 5888 5889 5891 5894 5896 5895 5895 5894 5894 5895 5896 5897 5898 5898 5899 5899 5898 5897 5896 5896 5898 5899 5899 5900 5900 5901 5901
5861 5860 5860 5859 5859 5858 5858 5858 5857 5857 5857 5857 5857 5856 5856 5857 5857 5857 5858 5858 5857 5857 5858 5859 5859 5858 5858 5858 5858 5859 5859 5859 5861 5862 5862 5863 5864 5864 5865 5866 5866 5867 5869 5871 5871 5872 5875 5877 5878 5879 5880 5881 5884 5885 5884 5885 5886 5886 5887 5887 5887 5888 5888 5889 5892 5894 5895 5894 5894 5894 5894 5895 5897 5897 5897 5898 5898 5897 5896 5897 5897 5899 5899 5900 5900 5900 5901 5901
5858 5857 5856 5856 5855 5855 5855 5854 5854 5854 5854 5854 5854 5853 5853 5853 5854 5854 5855 5855 5855 5855 5855 5856 5856 5856 5856 5856 5856 5856 5856 5857 5859 5860 5860 5861 5862 5862 5863 5865 5865 5866 5868 5869 5870 5871 5873 5875 5877 5878 5878 5880 5882 5882 5882 5884 5884 5885 5886 5887 5887 5887 5887 5888 5889 5891 5894 5894 5893 5894 5894 5895 5896 5897 5897 5898 5898 5897 5897 5897 5898 5900 5900 5900 5900 5900 5901 5901
5854 5854 5853 5852 5852 5851 5851 5850 5850 5850 5850 5850 5850 5850 5850 5850 5850 5850 5851 5852 5852 5852 5852 5853 5854 5854 5854 5854 5854 5854 5854 5855 5856 5857 5858 5859 5860 5860 5861 5863 5863 5864 5865 5866 5867 5869 5870 5873 5875 5875 5876 5878 5879 5879 5880 5882 5883 5884 5885 5886 5886 5886 5886 5887 5888 5889 5891 5892 5892 5893 5894 5895 5896 5897 5897 5898 5898 5898 5897 5897 5899 5900 5900 5901 5901 5901 5901 5901
5851 5850 5850 5849 5848 5848 5847 5846 5846 5846 5846 5846 5846 5846 5846 5846 5847 5847 5847 5848 5848 5848 5849 5850 5851 5851 5851 5851 5851 5851 5852 5853 5854 5855 5855 5856 5858 5858 5858 5860 5861 5861 5862 5863 5864 5866 5869 5872 5873 5873 5875 5875 5875 5876 5877 5881 5883 5883 5883 5883 5884 5884 5884 5885 5886 5886 5888 5890 5891 5891 5893 5894 5895 5896 5897 5898 5898 5898 5897 5897 5898 5900 5900 5901 5901 5902 5902 5902
5848 5847 5846 5845 5844 5844 5843 5842 5842 5842 5841 5841 5841 5842 5842 5842 5843 5843 5843 5844 5844 5844 5845 5846 5847 5848 5848 5848 5848 5848 5849 5850 5851 5851 5852 5854 5855 5856 5856 5857 5859 5859 5859 5860 5862 5865 5867 5869 5869 5869 5869 5870 5872 5873 5876 5880 5881 5880 5880 5881 5881 5881 5882 5883 5884 5884 5885 5886 5889 5890 5891 5893 5894 5895 5896 5897 5898 5897 5896 5897 5898 5899 5900 5901 5901 5902 5903 5903
5844 5843 5843 5842 5841 5840 5839 5838 5838 5837 5837 5837 5837 5837 5837 5838 5838 5838 5839 5839 5840 5840 5841 5842 5844 5845 5845 5846 5845 5844 5846 5848 5848 5849 5850 5850 5852 5853 5854 5854 5856 5856 5857 5858 5860 5862 5863 5864 5864 5864 5866 5868 5869 5871 5875 5878 5877 5876 5877 5878 5879 5879 5880 5881 5882 5883 5883 5884 5886 5888 5890 5891 5893 5894 5895 5895 5897 5897 5896 5897 5898 5899 5900 5901 5901 5902 5903 5903
5841 5840 5839 5838 5837 5836 5836 5835 5834 5833 5833 5832 5832 5832 5833 5833 5833 5834 5834 5835 5835 5836 5837 5838 5839 5841 5842 5843 5841 5840 5843 5845 5846 5847 5847 5846 5847 5850 5851 5851 5852 5853 5855 5856 5856 5857 5858 5859 5860 5862 5865 5866 5867 5869 5872 5874 5873 5874 5874 5876 5877 5878 5879 5881 5882 5882 5882 5882 5883 5886 5888 5890 5892 5894 5894 5895 5896 5897 5896 5897 5898 5899 5899 5900 5901 5902 5903 5904
5837 5836 5835 5834 5833 5832 5832 5831 5830 5829 5829 5828 5828 5828 5828 5828 5829 5829 5829 5830 5830 5831 5832 5833 5835 5836 5838 5839 5836 5837 5839 5841 5844 5844 5843 5843 5843 5845 5847 5848 5849 5850 5852 5852 5853 5853 5854 5856 5858 5861 5862 5862 5864 5866 5869 5870 5869 5870 5871 5874 5875 5876 5878 5881 5881 5882 5882 5881 5881 5884 5887 5889 5891 5892 5893 5894 5896 5897 5896 5896 5897 5898 5899 5899 5901 5902 5903 5904
5833 5832 5831 5830 5829 5828 5827 5827 5826 5825 5824 5824 5823 5823 5823 5824 5824 5824 5824 5824 5825 5826 5827 5829 5830 5832 5835 5835 5831 5833 5836 5838 5840 5839 5838 5839 5839 5840 5843 5845 5846 5848 5849 5849 5849 5850 5851 5853 5855 5857 5857 5859 5863 5863 5865 5866 5867 5868 5869 5871 5873 5874 5878 5880 5880 5882 5882 5881 5880 5882 5885 5888 5889 5891 5893 5894 5895 5896 5896 5896 5897 5897 5898 5899 5900 5902 5903 5904
5829 5828 5826 5825 5825 5824 5823 5822 5821 5820 5820 5819 5819 5819 5819 5819 5819 5819 5819 5819 5819 5820 5822 5824 5825 5827 5830 5830 5827 5828 5832 5833 5834 5835 5836 5837 5837 5838 5839 5841 5843 5844 5845 5845 5846 5847 5848 5849 5852 5854 5856 5859 5859 5858 5861 5863 5865 5866 5867 5870 5872 5874 5877 5878 5879 5881 5882 5881 5880 5881 5883 5886 5888 5890 5892 5893 5894 5895 5896 5896 5896 5897 5898 5898 5900 5901 5902 5903
5825 5823 5822 5820 5819 5819 5817 5817 5816 5815 5815 5814 5814 5814 5814 5814 5815 5814 5814 5813 5814 5815 5818 5819 5820 5822 5825 5826 5823 5823 5825 5828 5830 5831 5833 5835 5835 5835 5835 5837 5839 5840 5842 5842 5843 5843 5844 5847 5850 5852 5853 5854 5854 5856 5859 5859 5861 5863 5866 5870 5872 5873 5875 5876 5878 5880 5880 5879 5879 5881 5882 5885 5887 5889 5891 5892 5893 5894 5895 5896 5896 5896 5897 5898 5899 5901 5902 5903
5820 5818 5816 5815 5814 5813 5812 5811 5811 5810 5810 5809 5808 5808 5808 5809 5810 5810 5808 5807 5808 5810 5812 5813 5815 5816 5818 5820 5820 5818 5819 5822 5826 5827 5829 5830 5830 5831 5832 5834 5836 5836 5837 5837 5839 5840 5841 5845 5847 5848 5849 5850 5852 5854 5854 5855 5859 5863 5866 5869 5871 5872 5873 5874 5877 5878 5878 5877 5878 5880 5880 5882 5886 5888 5889 5891 5892 5893 5894 5895 5895 5895 5896 5897 5898 5900 5902 5902
5815 5813 5811 5809 5807 5807 5806 5805 5805 5804 5804 5803 5802 5803 5803 5803 5804 5804 5801 5801 5803 5804 5806 5808 5810 5811 5812 5814 5814 5814 5815 5817 5820 5823 5826 5826 5825 5826 5828 5829 5830 5831 5831 5832 5835 5837 5839 5842 5844 5845 5845 5847 5848 5850 5851 5856 5862 5864 5865 5867 5869 5871 5872 5873 5876 5876 5876 5876 5877 5877 5878 5879 5883 5886 5887 5889 5891 5892 5893 5893 5894 5894 5895 5896 5897 5900 5901 5902
5809 5807 5805 5802 5801 5800 5799 5798 5798 5798 5797 5796 5796 5796 5797 5797 5798 5798 5794 5795 5798 5797 5800 5803 5805 5807 5807 5808 5808 5809 5811 5811 5814 5818 5821 5821 5820 5821 5822 5822 5823 5825 5827 5829 5831 5834 5836 5838 5838 5840 5843 5846 5848 5850 5854 5859 5861 5861 5862 5864 5866 5869 5871 5872 5874 5875 5875 5875 5875 5876 5876 5877 5880 5883 5886 5887 5889 5891 5891 5892 5893 5893 5893 5895 5896 5899 5901 5901
5803 5801 5799 5796 5794 5794 5792 5791 5791 5791 5790 5790 5789 5790 5791 5791 5792 5791 5786 5788 5791 5791 5794 5796 5799 5801 5801 5801 5802 5804 5806 5807 5808 5811 5815 5816 5815 5816 5817 5817 5818 5820 5823 5827 5829 5830 5831 5832 5833 5839 5845 5847 5848 5849 5852 5855 5856 5857 5858 5860 5863 5866 5869 5871 5872 5873 5873 5873 5874 5875 5874 5875 5878 5881 5884 5885 5887 5889 5890 5891 5892 5892 5893 5893 5895 5897 5900 5901
5796 5794 5792 5789 5787 5787 5786 5784 5783 5783 5783 5783 5782 5783 5783 5784 5786 5785 5781 5781 5783 5785 5787 5788 5791 5794 5795 5796 5797 5799 5802 5803 5804 5805 5808 5810 5810 5811 5812 5812 5813 5816 5821 5824 5824 5824 5824 5825 5832 5840 5844 5843 5844 5844 5847 5850 5852 5853 5855 5857 5860 5863 5867 5869 5869 5869 5870 5871 5873 5872 5871 5873 5876 5879 5881 5883 5885 5887 5889 5891 5892 5892 5892 5892 5894 5896 5899 5900
5789 5787 5785 5782 5779 5779 5778 5776 5775 5775 5775 5775 5775 5775 5776 5777 5778 5779 5778 5776 5774 5777 5780 5781 5783 5786 5789 5791 5792 5793 5796 5798 5799 5799 5801 5803 5803 5806 5807 5807 5810 5814 5818 5818 5817 5818 5818 5823 5834 5839 5838 5838 5839 5840 5842 5845 5848 5849 5851 5854 5857 5861 5865 5866 5867 5867 5868 5870 5871 5870 5869 5871 5874 5876 5878 5881 5883 5885 5887 5889 5890 5891 5891 5892 5893 5895 5897 5899
5782 5780 5778 5776 5772 5771 5771 5769 5768 5767 5767 5767 5767 5767 5768 5769 5769 5770 5772 5772 5769 5770 5772 5773 5775 5778 5782 5785 5787 5787 5789 5792 5792 5792 5794 5795 5797 5800 5801 5803 5806 5809 5811 5811 5813 5815 5816 5826 5835 5834 5832 5834 5835 5836 5838 5841 5843 5845 5846 5849 5854 5860 5862 5863 5866 5865 5865 5868 5869 5867 5866 5868 5871 5873 5875 5878 5881 5882 5884 5886 5888 5889 5890 5890 5891 5894 5896 5898
5776 5773 5771 5769 5766 5764 5763 5762 5760 5759 5758 5759 5759 5759 5759 5760 5761 5761 5763 5764 5764 5764 5765 5766 5767 5769 5774 5777 5780 5781 5782 5785 5785 5783 5785 5788 5791 5793 5795 5799 5801 5803 5805 5807 5810 5811 5815 5825 5828 5825 5827 5830 5831 5833 5834 5836 5839 5841 5843 5846 5853 5858 5860 5863 5864 5861 5862 5865 5865 5864 5863 5863 5866 5868 5872 5875 5877 5878 5880 5882 5883 5886 5888 5888 5889 5892 5894 5896
5770 5767 5764 5763 5760 5757 5756 5755 5754 5752 5750 5751 5750 5750 5750 5751 5752 5752 5754 5755 5756 5757 5758 5759 5760 5761 5766 5769 5772 5774 5775 5777 5776 5774 5778 5782 5784 5787 5790 5793 5795 5797 5800 5802 5804 5806 5812 5820 5821 5819 5822 5825 5826 5828 5831 5833 5836 5838 5840 5845 5852 5856 5858 5861 5860 5857 5859 5861 5863 5862 5860 5859 5862 5865 5870 5873 5874 5875 5877 5878 5881 5884 5886 5886 5887 5890 5892 5894
5763 5761 5757 5757 5755 5752 5751 5749 5748 5746 5744 5743 5742 5742 5742 5743 5743 5744 5746 5747 5747 5749 5749 5751 5752 5754 5759 5761 5764 5767 5767 5768 5767 5767 5771 5774 5776 5780 5784 5787 5790 5793 5796 5797 5798 5801 5808 5814 5814 5813 5817 5819 5821 5824 5827 5830 5832 5835 5840 5846 5850 5852 5854 5856 5856 5854 5854 5858 5861 5859 5856 5857 5859 5862 5867 5870 5871 5873 5875 5877 5880 5882 5883 5884 5886 5888 5890 5892
5758 5756 5753 5751 5750 5747 5746 5745 5743 5742 5741 5738 5737 5735 5734 5735 5736 5736 5738 5739 5740 5741 5741 5743 5745 5747 5751 5753 5756 5758 5757 5757 5758 5759 5762 5766 5769 5774 5776 5780 5784 5787 5790 5790 5789 5794 5804 5808 5808 5809 5812 5814 5816 5820 5825 5827 5829 5835 5841 5843 5844 5846 5849 5853 5853 5850 5852 5857 5857 5853 5853 5854 5853 5857 5865 5867 5868 5871 5872 5874 5877 5879 5881 5883 5885 5886 5888 5890
5754 5752 5749 5747 5745 5743 5742 5741 5740 5738 5737 5735 5733 5731 5730 5730 5729 5729 5730 5730 5732 5735 5734 5735 5737 5740 5743 5745 5746 5748 5747 5749 5751 5752 5757 5762 5765 5767 5769 5771 5775 5779 5783 5783 5785 5793 5802 5804 5804 5806 5808 5811 5815 5821 5824 5824 5827 5834 5838 5837 5839 5842 5845 5849 5849 5847 5851 5853 5850 5850 5851 5850 5849 5854 5861 5863 5864 5867 5870 5872 5874 5877 5881 5883 5884 5885 5887 5889
5752 5749 5747 5744 5742 5739 5737 5737 5736 5735 5733 5731 5729 5727 5726 5726 5725 5725 5724 5723 5725 5727 5728 5728 5730 5733 5736 5736 5736 5738 5740 5742 5744 5747 5752 5756 5757 5759 5762 5765 5768 5770 5774 5778 5782 5790 5796 5798 5799 5800 5803 5808 5814 5818 5819 5820 5824 5830 5832 5831 5835 5837 5840 5844 5843 5844 5848 5844 5841 5848 5849 5846 5847 5851 5855 5858 5861 5865 5869 5871 5873 5876 5879 5881 5883 5884 5886 5887
5749 5746 5743 5740 5738 5736 5733 5732 5732 5731 5730 5728 5726 5724 5724 5723 5721 5721 5720 5719 5719 5720 5722 5722 5723 5725 5727 5727 5727 5730 5734 5734 5735 5741 5745 5747 5749 5753 5756 5759 5759 5761 5766 5770 5774 5782 5787 5790 5791 5793 5798 5805 5809 5811 5813 5816 5821 5825 5826 5826 5829 5830 5834 5838 5837 5841 5841 5833 5835 5846 5847 5844 5843 5846 5850 5854 5861 5865 5867 5869 5871 5873 5876 5879 5881 5882 5884 5885
5745 5742 5739 5736 5733 5731 5729 5728 5726 5726 5726 5725 5723 5721 5720 5719 5719 5717 5716 5716 5715 5715 5718 5717 5717 5718 5718 5718 5720 5724 5727 5726 5728 5734 5737 5739 5742 5745 5746 5746 5748 5752 5757 5761 5765 5772 5776 5779 5783 5787 5793 5798 5800 5802 5807 5811 5815 5818 5819 5820 5823 5825 5828 5831 5832 5834 5829 5823 5832 5844 5846 5842 5837 5841 5848 5852 5859 5863 5864 5866 5868 5871 5874 5877 5879 5881 5882 5883
5740 5737 5733 5731 5728 5726 5725 5723 5721 5720 5720 5719 5719 5717 5716 5715 5714 5714 5713 5712 5710 5710 5714 5712 5711 5712 5710 5711 5715 5718 5720 5720 5721 5725 5728 5730 5732 5734 5734 5735 5739 5744 5748 5754 5759 5762 5765 5771 5778 5782 5786 5790 5792 5796 5801 5804 5807 5810 5813 5814 5816 5819 5822 5823 5824 5824 5820 5821 5833 5843 5844 5837 5831 5839 5848 5848 5854 5860 5862 5863 5865 5869 5873 5875 5878 5879 5880 5881
5735 5731 5728 5726 5722 5720 5719 5718 5716 5715 5713 5713 5713 5712 5710 5709 5708 5708 5709 5708 5704 5705 5708 5708 5707 5706 5704 5706 5710 5711 5712 5714 5715 5716 5719 5721 5723 5725 5726 5730 5735 5737 5741 5749 5752 5754 5759 5766 5772 5776 5780 5785 5788 5792 5795 5798 5801 5804 5807 5809 5810 5812 5814 5815 5817 5818 5817 5821 5833 5842 5840 5830 5828 5839 5845 5845 5850 5856 5859 5861 5861 5865 5869 5873 5876 5877 5878 5880
5730 5726 5724 5721 5717 5715 5714 5713 5711 5710 5708 5707 5706 5705 5704 5702 5701 5702 5702 5701 5699 5699 5701 5702 5703 5701 5699 5701 5703 5704 5706 5708 5709 5710 5711 5713 5715 5718 5721 5725 5728 5729 5736 5743 5743 5746 5753 5759 5767 5774 5777 5781 5783 5788 5793 5797 5799 5802 5807 5808 5809 5810 5812 5815 5817 5818 5818 5823 5833 5839 5832 5823 5827 5837 5843 5845 5847 5850 5855 5859 5860 5861 5864 5869 5873 5875 5876 5878
5725 5722 5720 5717 5713 5711 5710 5709 5707 5705 5703 5702 5701 5700 5698 5696 5695 5695 5694 5694 5694 5694 5694 5695 5697 5696 5695 5695 5696 5699 5701 5702 5704 5705 5705 5707 5708 5710 5714 5717 5719 5725 5732 5734 5735 5741 5746 5755 5767 5772 5773 5778 5781 5786 5791 5792 5795 5799 5804 5804 5805 5809 5813 5816 5819 5820 5821 5824 5831 5832 5824 5820 5828 5836 5841 5844 5845 5847 5851 5855 5857 5859 5860 5864 5868 5870 5873 5875
5722 5720 5717 5713 5710 5709 5707 5706 5704 5702 5700 5698 5696 5694 5693 5690 5689 5688 5687 5687 5687 5688 5688 5689 5690 5690 5690 5690 5691 5693 5695 5695 5698 5700 5700 5701 5702 5703 5705 5709 5713 5719 5723 5724 5728 5734 5739 5751 5759 5759 5764 5773 5779 5783 5785 5786 5791 5794 5796 5797 5803 5810 5812 5813 5817 5819 5820 5821 5824 5826 5822 5822 5828 5832 5836 5840 5842 5845 5847 5850 5854 5857 5859 5861 5863 5866 5869 5872
5720 5718 5715 5712 5709 5706 5704 5702 5701 5698 5696 5694 5691 5689 5687 5685 5683 5681 5681 5681 5681 5681 5682 5682 5683 5683 5684 5684 5685 5687 5689 5689 5692 5695 5695 5696 5697 5697 5698 5702 5707 5711 5714 5717 5722 5726 5733 5744 5751 5751 5759 5767 5772 5776 5778 5781 5786 5789 5792 5798 5804 5806 5807 5809 5812 5814 5815 5815 5818 5822 5821 5821 5825 5829 5832 5837 5840 5843 5845 5848 5851 5854 5856 5858 5861 5864 5866 5869
5717 5715 5713 5710 5707 5704 5701 5699 5697 5694 5692 5689 5687 5684 5682 5679 5677 5675 5674 5675 5675 5674 5675 5676 5676 5676 5676 5678 5680 5681 5683 5683 5686 5690 5691 5691 5692 5692 5693 5695 5699 5703 5708 5711 5715 5720 5727 5737 5745 5750 5755 5760 5763 5766 5769 5774 5780 5785 5792 5797 5798 5799 5801 5803 5805 5807 5808 5809 5813 5817 5818 5818 5822 5826 5830 5834 5838 5841 5843 5846 5848 5851 5853 5856 5859 5863 5865 5867
5714 5712 5709 5706 5703 5700 5698 5695 5692 5690 5687 5685 5682 5679 5676 5674 5671 5669 5667 5668 5669 5668 5669 5669 5670 5670 5670 5671 5674 5675 5676 5677 5681 5684 5686 5686 5688 5688 5688 5690 5693 5697 5701 5705 5709 5714 5720 5729 5738 5744 5749 5753 5755 5756 5761 5769 5777 5782 5786 5789 5791 5795 5798 5801 5802 5804 5806 5807 5810 5814 5815 5816 5820 5825 5829 5832 5836 5840 5841 5843 5846 5849 5851 5854 5857 5861 5863 5866
5710 5708 5705 5702 5699 5696 5694 5691 5688 5685 5683 5680 5677 5674 5671 5668 5665 5663 5661 5661 5661 5662 5662 5663 5663 5663 5663 5664 5666 5668 5670 5673 5676 5678 5680 5682 5684 5685 5685 5685 5688 5690 5694 5699 5703 5707 5714 5722 5731 5738 5743 5746 5748 5753 5762 5769 5774 5777 5778 5780 5784 5788 5793 5797 5799 5801 5804 5805 5808 5811 5811 5815 5821 5824 5826 5830 5834 5837 5839 5842 5844 5846 5849 5852 5855 5858 5861 5864
5707 5705 5702 5698 5695 5692 5689 5687 5684 5681 5678 5675 5671 5668 5665 5662 5659 5657 5656 5655 5654 5654 5655 5655 5656 5657 5656 5657 5660 5662 5665 5668 5671 5673 5676 5678 5680 5681 5681 5682 5683 5685 5688 5692 5696 5702 5708 5714 5723 5732 5735 5738 5744 5753 5763 5766 5768 5772 5774 5776 5781 5784 5787 5790 5791 5795 5800 5802 5805 5808 5809 5814 5820 5822 5824 5828 5832 5835 5838 5840 5842 5844 5847 5849 5852 5855 5858 5860
5703 5700 5698 5694 5690 5688 5684 5682 5679 5676 5673 5670 5666 5663 5660 5657 5654 5651 5650 5649 5648 5648 5648 5648 5649 5651 5651 5652 5654 5657 5660 5663 5666 5668 5670 5673 5674 5675 5676 5677 5679 5680 5682 5686 5690 5696 5701 5706 5716 5725 5729 5735 5744 5753 5758 5761 5763 5765 5767 5772 5778 5780 5782 5785 5788 5793 5797 5799 5802 5805 5807 5813 5819 5821 5822 5826 5828 5831 5834 5837 5839 5841 5843 5846 5849 5852 5854 5857
5698 5694 5692 5690 5686 5683 5680 5677 5674 5671 5668 5664 5661 5658 5655 5652 5649 5646 5644 5643 5643 5643 5643 5643 5644 5645 5646 5647 5649 5652 5654 5656 5658 5660 5662 5665 5666 5668 5671 5673 5674 5676 5678 5681 5685 5690 5696 5702 5711 5721 5727 5735 5743 5749 5754 5758 5758 5758 5761 5766 5771 5774 5779 5785 5788 5793 5795 5796 5801 5804 5806 5812 5818 5819 5820 5823 5826 5828 5829 5832 5835 5837 5839 5843 5846 5848 5851 5853
5695 5690 5688 5686 5683 5679 5676 5673 5670 5667 5663 5660 5657 5654 5650 5647 5644 5641 5640 5638 5638 5638 5638 5639 5639 5640 5641 5642 5643 5645 5647 5649 5651 5651 5654 5656 5658 5660 5665 5668 5670 5672 5673 5676 5679 5684 5691 5696 5705 5716 5723 5730 5737 5742 5746 5749 5748 5750 5755 5760 5764 5770 5777 5782 5785 5788 5790 5793 5798 5801 5804 5811 5815 5816 5818 5821 5823 5825 5827 5829 5831 5833 5836 5839 5842 5844 5847 5850
5692 5687 5684 5682 5679 5676 5673 5670 5666 5663 5659 5655 5652 5649 5645 5642 5639 5637 5636 5634 5633 5634 5634 5635 5635 5636 5636 5638 5639 5640 5642 5643 5643 5643 5646 5649 5650 5653 5657 5661 5664 5666 5667 5670 5675 5680 5686 5691 5697 5707 5715 5720 5726 5731 5735 5738 5740 5745 5752 5757 5762 5767 5771 5775 5778 5781 5784 5789 5794 5797 5802 5810 5812 5812 5815 5819 5821 5823 5825 5827 5829 5832 5834 5836 5838 5841 5843 5846
5688 5684 5681 5679 5675 5672 5670 5666 5663 5660 5656 5652 5649 5645 5642 5638 5635 5634 5632 5630 5630 5630 5631 5632 5632 5633 5633 5634 5635 5636 5637 5637 5636 5636 5639 5642 5644 5646 5650 5654 5657 5660 5662 5667 5671 5676 5681 5685 5690 5699 5707 5712 5718 5723 5727 5731 5736 5743 5750 5754 5759 5763 5765 5769 5772 5775 5780 5787 5790 5793 5800 5807 5809 5810 5813 5816 5819 5822 5824 5826 5829 5831 5832 5834 5837 5839 5840 5842
5685 5681 5678 5676 5672 5668 5665 5662 5659 5656 5653 5649 5646 5643 5639 5636 5633 5631 5630 5629 5628 5628 5629 5629 5630 5630 5630 5630 5631 5632 5632 5633 5632 5631 5633 5636 5637 5637 5641 5646 5650 5654 5659 5663 5667 5671 5676 5681 5686 5694 5702 5708 5714 5720 5724 5727 5734 5741 5746 5750 5754 5758 5761 5763 5765 5770 5778 5783 5786 5791 5798 5803 5806 5809 5811 5814 5817 5820 5823 5825 5828 5830 5831 5833 5835 5837 5838 5839
5683 5678 5674 5673 5670 5666 5662 5659 5656 5653 5650 5646 5644 5641 5637 5635 5632 5630 5628 5627 5627 5626 5627 5627 5627 5627 5627 5627 5628 5628 5628 5629 5629 5629 5629 5630 5630 5630 5632 5638 5643 5648 5654 5658 5663 5667 5673 5678 5682 5689 5698 5705 5711 5716 5720 5725 5731 5737 5742 5746 5750 5753 5756 5759 5763 5769 5775 5778 5783 5791 5796 5800 5805 5808 5810 5813 5816 5818 5820 5823 5826 5828 5830 5832 5834 5835 5836 5837
5681 5677 5673 5670 5667 5664 5660 5656 5653 5650 5647 5643 5641 5638 5635 5633 5630 5629 5627 5626 5625 5624 5625 5625 5624 5624 5624 5624 5624 5624 5624 5625 5626 5626 5625 5624 5625 5623 5624 5630 5635 5641 5647 5653 5657 5662 5669 5675 5678 5684 5694 5703 5708 5713 5717 5722 5729 5734 5738 5740 5742 5746 5751 5756 5762 5767 5772 5776 5783 5790 5793 5798 5804 5806 5809 5811 5813 5816 5817 5819 5822 5826 5828 5830 5832 5833 5834 5835
5679 5675 5671 5668 5665 5662 5658 5654 5650 5647 5644 5641 5638 5635 5633 5630 5628 5627 5626 5625 5624 5622 5622 5622 5622 5621 5621 5620 5620 5620 5620 5621 5622 5623 5621 5620 5620 5618 5617 5622 5628 5633 5640 5646 5651 5657 5665 5671 5675 5681 5692 5700 5704 5709 5714 5720 5726 5729 5731 5732 5737 5743 5749 5755 5761 5766 5770 5774 5780 5785 5789 5795 5801 5803 5805 5808 5810 5813 5815 5816 5819 5823 5825 5828 5830 5831 5832 5834
5677 5673 5669 5666 5662 5659 5656 5652 5648 5644 5641 5638 5635 5632 5630 5628 5626 5624 5623 5623 5622 5621 5620 5620 5619 5619 5618 5617 5617 5617 5617 5617 5618 5618 5616 5615 5615 5614 5612 5616 5622 5627 5634 5640 5646 5652 5661 5668 5671 5678 5688 5696 5700 5705 5711 5718 5722 5724 5725 5729 5735 5742 5747 5753 5758 5762 5767 5772 5778 5781 5786 5792 5797 5799 5801 5804 5808 5811 5813 5815 5817 5820 5823 5826 5827 5829 5831 5832
5675 5671 5667 5664 5660 5656 5653 5650 5646 5643 5639 5637 5633 5630 5628 5626 5624 5622 5620 5619 5619 5618 5617 5617 5616 5616 5615 5614 5614 5614 5614 5614 5613 5613 5612 5610 5610 5610 5609 5610 5616 5622 5629 5635 5641 5647 5656 5663 5667 5673 5684 5692 5695 5701 5709 5714 5717 5719 5721 5726 5732 5738 5744 5749 5754 5759 5764 5769 5774 5777 5782 5788 5792 5794 5797 5801 5805 5808 5811 5813 5815 5817 5820 5823 5825 5827 5829 5831